Weather History for McAllen, TX

Change the Weather History Date:

Tuesday, February 12, 2013

  Actual Average Record
Temperature  
Mean Temperature 70 °F 64 °F  
Max Temperature 81 °F 75 °F 92 °F (1995)
Min Temperature 59 °F 54 °F 28 °F (1892)
Degree Days  
Heating Degree Days 0 4  
Month to date heating degree days 0 57  
Since 1 July heating degree days 269 484  
Cooling Degree Days 5 3  
Month to date cooling degree days 98 34  
Year to date cooling degree days 186 96  
Growing Degree Days 20 (Base 50)    
Moisture  
Dew Point 58 °F    
Average Humidity 70    
Maximum Humidity 93    
Minimum Humidity 47    
Precipitation  
Precipitation 0.00 in 0.04 in 1.38 in (1960)
Month to date precipitation 0.01 0.51  
Year to date precipitation 0.99 1.56  
Sea Level Pressure  
Sea Level Pressure 29.86 in    
Wind  
Wind Speed 8 mph (North)    
Max Wind Speed 18 mph    
Max Gust Speed 28 mph    
Visibility 9 miles    
Events      
T = Trace of Precipitation, MM = Missing Value Source: NWS Daily Summary

Daily Weather History Graph

Daily Weather History Graph

Search for Another Location

Airport:

Trip Planner

Search our weather history database for the weather conditions in past years. The results will help you decide how hot, cold, wet, or windy it might be!

Date:

Astronomy

Feb. 12, 2013 Rise Set
Actual Time 7:10 AM CST 6:24 PM CST
Civil Twilight 6:46 AM CST 6:47 PM CST
Nautical Twilight 6:19 AM CST 7:15 PM CST
Astronomical Twilight 5:52 AM CST 7:42 PM CST
Moon 8:29 AM CST (2/12) 9:02 PM CST (2/12)
Length of Visible Light 12h 01m
Length of Day
11h 13m
Waxing Crescent, 7% of the Moon is Illuminated
Feb 12
Waxing Crescent
Feb 17
First Quarter
Feb 25
Full
Mar 4
Last Quarter
Mar 11
New

Hourly Weather History & Observations

Time (CST) Temp. Heat Index Dew Point Humidity Pressure Visibility Wind Dir Wind Speed Gust Speed Precip Events Conditions
12:22 AM 64.4 °F - 62.6 °F 94% 29.87 in 8.0 mi NE 8.1 mph - N/A   Overcast
12:53 AM 64.0 °F - 61.0 °F 90% 29.86 in 7.0 mi NNE 5.8 mph - N/A   Overcast
1:53 AM 64.0 °F - 61.0 °F 90% 29.86 in 6.0 mi NNE 10.4 mph - N/A   Overcast
2:53 AM 63.0 °F - 61.0 °F 93% 29.85 in 9.0 mi NNE 8.1 mph - N/A   Overcast
3:53 AM 62.1 °F - 60.1 °F 93% 29.84 in 4.0 mi North 8.1 mph - N/A   Overcast
4:53 AM 62.1 °F - 59.0 °F 90% 29.83 in 9.0 mi NNW 8.1 mph - N/A   Overcast
5:53 AM 60.1 °F - 57.9 °F 93% 29.82 in 4.0 mi NNW 8.1 mph - N/A   Overcast
6:53 AM 60.1 °F - 57.0 °F 90% 29.86 in 5.0 mi NNW 9.2 mph - N/A   Overcast
7:53 AM 60.1 °F - 57.0 °F 90% 29.87 in 5.0 mi NNW 9.2 mph - N/A   Overcast
8:53 AM 60.1 °F - 57.0 °F 90% 29.90 in 10.0 mi NNW 8.1 mph - N/A   Overcast
9:03 AM 60.8 °F - 57.2 °F 88% 29.90 in 10.0 mi NNW 6.9 mph - N/A   Overcast
9:53 AM 62.1 °F - 57.0 °F 84% 29.91 in 10.0 mi NW 8.1 mph - N/A   Overcast
10:26 AM 62.6 °F - 57.2 °F 82% 29.90 in 10.0 mi Variable 4.6 mph - N/A   Overcast
10:38 AM 64.4 °F - 57.2 °F 77% 29.91 in 10.0 mi NW 5.8 mph - N/A   Overcast
10:53 AM 64.9 °F - 57.9 °F 78% 29.90 in 10.0 mi Calm Calm - N/A   Overcast
11:49 AM 69.8 °F - 59.0 °F 68% 29.88 in 10.0 mi NW 5.8 mph - N/A   Overcast
11:53 AM 71.1 °F - 60.1 °F 68% 29.88 in 10.0 mi NW 5.8 mph - N/A   Overcast
12:53 PM 73.9 °F - 60.1 °F 62% 29.85 in 10.0 mi NW 6.9 mph - N/A   Scattered Clouds
1:30 PM 73.4 °F - 60.8 °F 65% 29.84 in 10.0 mi NW 8.1 mph - N/A   Mostly Cloudy
1:50 PM 75.2 °F - 60.8 °F 61% 29.83 in 10.0 mi North 5.8 mph - N/A   Scattered Clouds
1:53 PM 77.0 °F - 61.0 °F 58% 29.82 in 10.0 mi NNW 4.6 mph - N/A   Scattered Clouds
2:22 PM 77.0 °F - 60.8 °F 57% 29.82 in 10.0 mi NNE 6.9 mph - N/A   Mostly Cloudy
2:32 PM 78.8 °F - 60.8 °F 54% 29.81 in 10.0 mi NW 8.1 mph - N/A   Scattered Clouds
2:53 PM 79.0 °F - 62.1 °F 56% 29.80 in 10.0 mi NW 6.9 mph 17.3 mph N/A   Clear
3:53 PM 80.1 °F 81.2 °F 62.1 °F 54% 29.78 in 10.0 mi North 12.7 mph - N/A   Clear
4:53 PM 81.0 °F 81.7 °F 61.0 °F 50% 29.78 in 10.0 mi NNE 9.2 mph - N/A   Clear
5:53 PM 78.1 °F - 60.1 °F 54% 29.81 in 10.0 mi NNE 10.4 mph - N/A   Partly Cloudy
6:53 PM 73.9 °F - 55.0 °F 52% 29.84 in 10.0 mi North 11.5 mph - N/A   Clear
7:53 PM 71.1 °F - 50.0 °F 47% 29.89 in 10.0 mi North 10.4 mph - N/A   Clear
8:53 PM 69.1 °F - 50.0 °F 51% 29.90 in 10.0 mi North 8.1 mph - N/A   Clear
9:53 PM 68.0 °F - 51.1 °F 55% 29.95 in 10.0 mi North 8.1 mph - N/A   Clear
10:53 PM 68.0 °F - 51.1 °F 55% 29.94 in 10.0 mi North 3.5 mph - N/A   Scattered Clouds
11:53 PM 66.0 °F - 51.1 °F 59% 29.97 in 10.0 mi NNW 3.5 mph - N/A   Mostly Cloudy